This demonstration page uses our WeatherBlox Daily Observations layout. Learn more.

Hourly Observations for August 27, 2017

Temp ( °F °C ) Dew Point ( °F °C ) Humidity (%) Winds ( mph kmh ) Pressure ( in mb ) Visibility ( mi km ) Precip ( " mm )
12:54 am 00:54 Clear 75 23.9 70 21.1 84 84 Calm 30.01 1016 10 16.0934 0 0
1:54 am 01:54 Clear 71 21.7 69 20.6 94 94 Calm 30.01 1016 8 12.87472 0 0
2:54 am 02:54 Clear 73 22.8 69 20.6 87 87 Calm 30.01 1016 9 14.48406 0 0
3:54 am 03:54 Mostly Cloudy 73 22.8 69 20.6 87 87 Calm 30 1016 10 16.0934 0 0
4:54 am 04:54 Mostly Clear with Mist and Fog 71 21.7 69 20.6 94 94 Calm 29.99 1016 4 6.43736 0 0.0254
5:54 am 05:54 Mostly Cloudy with Light Rain 72 22.2 70 21.1 94 94 NW 6 9 30.02 1017 5 8.0467 0.01 0.254
6:13 am 06:13 Mostly Cloudy with Nearby Thunderstorms 72 22.2 70 21.1 94 94 N 12 19 30.03 1017 5 8.0467 0.02 0.508
6:54 am 06:54 Mostly Cloudy with Nearby Thunderstorms 71 21.7 67 19.4 87 87 NE 7 11 30.01 1016 9 14.48406 0.05 1.27
7:13 am 07:13 Cloudy with Light Thunderstorms 70 21.1 66 18.9 87 87 ESE 5 7 30 1016 10 16.0934 0 0.0254
7:28 am 07:28 Mostly Cloudy with Light Rain 69 20.6 67 19.4 93 93 Calm 30 1016 10 16.0934 0 0.0254
7:54 am 07:54 Mostly Cloudy with Light Rain 70 21.1 68 20 93 93 WSW 6 9 30.01 1016 9 14.48406 0.01 0.254
8:10 am 08:10 Mostly Cloudy with Light Rain 71 21.7 69 20.6 94 94 VRB 3 6 30.03 1017 6 9.65604 0 0.0254
8:54 am 08:54 Mostly Cloudy with Mist and Fog 70 21.1 68 20 93 93 Calm 30.03 1017 6 9.65604 0.01 0.254
9:54 am 09:54 Sunny 72 22.2 66 18.9 82 82 N 5 7 30.05 1018 10 16.0934 0 0
10:54 am 10:54 Sunny 76 24.4 69 20.6 79 79 N 12 19 30.06 1018 10 16.0934 0 0
11:54 am 11:54 Partly Cloudy 79 26.1 70 21.1 74 74 NNE 10 17 30.06 1018 10 16.0934 0 0
12:54 pm 12:54 Mostly Sunny 82 27.8 67 19.4 60 60 NE 13 20 30.06 1018 10 16.0934 0 0
1:54 pm 13:54 Partly Cloudy 82 27.8 67 19.4 60 60 N 10 17 30.05 1018 10 16.0934 0 0
2:54 pm 14:54 Mostly Sunny 82 27.8 66 18.9 58 58 N 10 17 30.05 1018 10 16.0934 0 0
3:54 pm 15:54 Partly Cloudy 84 28.9 66 18.9 55 55 NNE 12 19 30.04 1017 10 16.0934 0 0
4:54 pm 16:54 Mostly Sunny 83 28.3 65 18.3 55 55 NNE 12 19 30.04 1017 10 16.0934 0 0
5:54 pm 17:54 Mostly Sunny 82 27.8 66 18.9 58 58 NNE 10 17 30.04 1017 10 16.0934 0 0
6:54 pm 18:54 Sunny 79 26.1 66 18.9 65 65 NNE 10 17 30.05 1018 10 16.0934 0 0
7:54 pm 19:54 Sunny 73 22.8 66 18.9 79 79 N 6 9 30.05 1018 10 16.0934 0 0
8:54 pm 20:54 Clear 71 21.7 65 18.3 81 81 N 3 6 30.06 1018 10 16.0934 0 0
9:54 pm 21:54 Clear 72 22.2 66 18.9 82 82 NNW 3 6 30.07 1018 10 16.0934 0 0
10:54 pm 22:54 Clear 70 21.1 65 18.3 84 84 NNW 3 6 30.08 1019 10 16.0934 0 0
11:54 pm 23:54 Clear 63 17.2 62 16.7 97 97 N 6 9 30.09 1019 9 14.48406 0 0

Powered by AerisWeather